Location: Newark
(0.5300°S, 127.4800°E)
Time: 03:14:06
(UTC+00:00)

Vanguard 3 - Pass Details

Date: 22 September 2019
Orbit: 508 x 3262 km, 33.3° (Epoch: 18 October)

Event Time Altitude Azimuth Distance (km) Brightness Sun altitude
Rises 04:56:06 0° 317° (NW) 7,219 12.2 66.7°
Reaches altitude 10° 05:01:53 10° 324° (NW) 6,108 12.0 65.3°
Maximum altitude 05:18:19 38° 26° (NNE) 3,501 10.7 61.2°
Drops below altitude 10° 05:29:28 10° 89° (E) 4,228 10.6 58.4°
Sets 05:32:34 0° 97° (E) 4,874 10.8 57.6°
